Voltar ao catálogo

THOR ABLESTAR DEB

AtivoLEO
NORAD 17713·DEBRIS·🇺🇸 United States

Lançado Jun 29, 1961 de Cape Canaveral Space Force Station

Loading…

Próximas Passagens (próximas 24 horas)

TLE

AtualizadoSource: Space-Track

Época: Sep 14, 2026, 12:13 UTC

1 17713U 61015LR  26257.50970065  .00000180  00000-0  18007-3 0  9994
2 17713  66.2098  73.0555 0058721 106.1739 286.1266 13.98739588112823

Acompanhe THOR ABLESTAR DEB em tempo real com AllMySat

Download on the App Store